Temp
-5 -5 -5 -5 -5 -5 -5 -5 -5 -5 -5 -5 -5 -5 -5 -5 -6 -6 -6 -7 -6 -6 -6 -6 -6 -6 -7 -7 -7 -7 -7 -7 -8 -8 -8 -8 -8 -8 -8 -8 -8 -8 -8 -8 -8 -8 -8 -8 -8
-6 -6 -6 -5 -5 -5 -5 -5 -5 -5 -5 -5 -5 -5 -5 -6 -6 -6 -6 -6 -7 -6 -6 -6 -6 -6 -7 -7 -7 -8 -7 -7 -7 -8 -8 -7 -7 -7 -8 -7 -8 -8 -8 -8 -8 -8 -8 -8 -8
-6 -6 -5 -5 -5 -5 -5 -5 -5 -6 -6 -5 -5 -5 -5 -5 -5 -5 -6 -6 -7 -7 -6 -6 -6 -6 -6 -7 -7 -8 -7 -7 -7 -7 -8 -8 -7 -7 -7 -7 -7 -8 -8 -8 -8 -8 -9 -8 -8
-6 -6 -5 -4 -5 -5 -5 -5 -5 -5 -6 -5 -4 -5 -5 -5 -5 -6 -6 -6 -7 -7 -6 -6 -6 -6 -6 -7 -7 -8 -8 -7 -7 -7 -7 -7 -7 -7 -7 -7 -7 -8 -8 -8 -8 -8 -9 -8 -8
-6 -6 -5 -5 -5 -5 -5 -5 -5 -6 -6 -6 -5 -5 -5 -5 -6 -5 -6 -6 -6 -7 -6 -6 -6 -6 -6 -7 -7 -7 -7 -8 -7 -7 -7 -7 -7 -7 -7 -7 -8 -8 -8 -8 -8 -8 -8 -8 -8
-6 -6 -5 -5 -6 -6 -5 -5 -5 -6 -6 -6 -5 -4 -5 -5 -6 -5 -6 -6 -7 -7 -6 -6 -6 -6 -7 -7 -7 -7 -8 -7 -7 -7 -7 -7 -7 -7 -7 -7 -8 -8 -8 -8 -8 -8 -8 -8 -8
-6 -5 -5 -6 -6 -6 -5 -5 -5 -5 -5 -5 -5 -4 -4 -5 -6 -6 -6 -6 -7 -7 -7 -6 -6 -7 -7 -7 -7 -8 -8 -8 -7 -7 -7 -7 -7 -7 -7 -7 -7 -7 -8 -8 -8 -8 -8 -8 -8
-6 -5 -5 -6 -7 -6 -5 -5 -5 -5 -4 -5 -5 -4 -5 -5 -5 -5 -6 -6 -7 -7 -7 -6 -6 -7 -7 -7 -7 -8 -7 -8 -7 -7 -7 -7 -7 -7 -7 -7 -7 -7 -7 -7 -7 -7 -7 -7 -7
-6 -5 -6 -6 -7 -7 -5 -5 -5 -5 -5 -5 -4 -4 -5 -5 -5 -6 -6 -6 -7 -7 -7 -6 -6 -7 -7 -7 -7 -7 -7 -7 -7 -7 -7 -6 -7 -7 -7 -7 -7 -7 -7 -7 -7 -7 -7 -7 -7
-6 -5 -5 -7 -7 -7 -7 -6 -6 -6 -6 -5 -5 -5 -5 -5 -6 -6 -6 -6 -7 -7 -7 -6 -7 -7 -7 -7 -7 -7 -7 -7 -6 -6 -6 -6 -6 -7 -7 -7 -7 -7 -7 -7 -6 -7 -7 -7 -7
-6 -6 -7 -7 -7 -7 -7 -7 -6 -6 -5 -5 -5 -5 -5 -6 -6 -6 -7 -7 -6 -7 -7 -7 -7 -7 -7 -8 -7 -7 -7 -6 -7 -6 -7 -6 -6 -7 -7 -7 -6 -7 -7 -7 -6 -6 -7 -7 -7
-7 -7 -7 -7 -8 -7 -7 -7 -6 -6 -5 -5 -5 -5 -5 -5 -5 -6 -6 -6 -6 -6 -7 -7 -7 -7 -7 -8 -7 -7 -6 -6 -7 -6 -6 -6 -6 -7 -7 -7 -7 -6 -7 -7 -7 -6 -6 -6 -6
-6 -6 -7 -8 -9 -8 -8 -8 -7 -6 -6 -6 -6 -5 -6 -6 -6 -6 -7 -7 -7 -7 -7 -7 -7 -7 -7 -7 -7 -7 -6 -6 -7 -6 -6 -6 -7 -7 -7 -6 -7 -6 -6 -6 -6 -6 -6 -6 -6
-7 -7 -8 -8 -9 -9 -9 -9 -7 -7 -7 -7 -7 -6 -7 -7 -7 -6 -6 -6 -7 -7 -7 -7 -7 -7 -7 -7 -7 -6 -7 -6 -7 -7 -7 -7 -7 -7 -7 -6 -6 -6 -6 -6 -7 -6 -6 -6 -6
-7 -8 -8 -8 -9 -9 -9 -8 -8 -7 -7 -8 -7 -7 -7 -7 -8 -7 -7 -6 -6 -6 -7 -7 -7 -7 -7 -7 -7 -7 -7 -7 -7 -7 -7 -7 -6 -7 -7 -6 -6 -6 -6 -6 -7 -6 -6 -6 -6
-8 -8 -8 -8 -9 -9 -9 -8 -8 -8 -8 -8 -8 -8 -8 -8 -8 -8 -8 -7 -6 -7 -7 -7 -7 -7 -7 -7 -7 -7 -7 -6 -7 -7 -6 -6 -6 -6 -7 -7 -7 -6 -7 -7 -7 -7 -6 -6 -6
-8 -8 -8 -8 -9 -9 -9 -9 -8 -8 -8 -8 -8 -8 -8 -8 -8 -8 -8 -8 -7 -7 -6 -7 -8 -7 -8 -7 -7 -7 -7 -7 -6 -7 -7 -7 -6 -6 -6 -6 -6 -7 -6 -6 -7 -7 -7 -7 -6
-9 -9 -9 -8 -9 -9 -9 -9 -9 -8 -8 -9 -8 -8 -8 -8 -8 -9 -9 -8 -8 -8 -8 -8 -7 -8 -8 -8 -7 -7 -7 -7 -7 -7 -7 -7 -6 -6 -6 -6 -6 -6 -6 -6 -6 -7 -6 -6 -7
-9 -9 -8 -9 -9 -9 -9 -9 -9 -8 -8 -8 -8 -9 -9 -8 -8 -8 -9 -9 -8 -8 -8 -8 -8 -8 -9 -9 -8 -8 -8 -8 -8 -7 -7 -7 -7 -7 -6 -6 -6 -6 -6 -6 -6 -6 -6 -7 -7
-9 -9 -9 -9 -9 -9 -9 -9 -9 -8 -8 -9 -9 -9 -9 -9 -7 -8 -9 -8 -8 -8 -8 -9 -8 -8 -9 -9 -8 -8 -8 -8 -7 -7 -7 -6 -7 -7 -7 -6 -6 -6 -6 -6 -6 -6 -6 -6 -6
-9 -8 -9 -9 -9 -9 -9 -9 -8 -8 -8 -8 -8 -9 -8 -8 -8 -8 -8 -8 -8 -8 -8 -9 -8 -8 -8 -8 -8 -8 -8 -7 -7 -7 -7 -7 -7 -7 -7 -7 -7 -6 -6 -6 -6 -6 -6 -6 -6
-9 -8 -9 -9 -9 -9 -9 -8 -8 -8 -8 -8 -9 -8 -8 -9 -8 -8 -8 -8 -9 -9 -9 -9 -8 -9 -9 -9 -9 -8 -8 -8 -7 -7 -7 -7 -7 -7 -8 -7 -7 -7 -7 -7 -7 -7 -6 -6 -6
-9 -9 -9 -9 -9 -9 -9 -8 -9 -8 -8 -8 -8 -8 -7 -8 -9 -9 -9 -9 -9 -9 -9 -9 -8 -9 -9 -9 -8 -8 -8 -8 -8 -8 -8 -8 -8 -8 -8 -7 -8 -8 -7 -8 -8 -7 -7 -7 -7
-9 -9 -9 -9 -9 -9 -9 -9 -8 -8 -8 -8 -8 -9 -8 -8 -8 -9 -9 -9 -9 -9 -9 -9 -9 -9 -9 -9 -8 -9 -9 -9 -8 -8 -8 -8 -8 -8 -8 -8 -8 -8 -7 -7 -7 -7 -8 -7 -7
-9 -9 -9 -9 -9 -9 -9 -9 -8 -8 -8 -8 -8 -8 -7 -8 -8 -9 -9 -9 -9 -9 -9 -9 -9 -9 -9 -9 -9 -9 -9 -9 -9 -8 -8 -8 -9 -9 -8 -8 -8 -8 -8 -8 -8 -7 -7 -7 -7
-8 -9 -9 -9 -9 -9 -9 -8 -8 -8 -8 -8 -8 -8 -8 -9 -8 -8 -9 -9 -9 -9 -9 -9 -9 -9 -9 -9 -9 -9 -9 -9 -9 -8 -8 -8 -8 -8 -8 -8 -8 -8 -8 -8 -8 -8 -8 -8 -7
-8 -8 -9 -8 -8 -8 -8 -8 -8 -8 -8 -8 -8 -9 -8 -8 -9 -9 -9 -9 -9 -8 -8 -9 -9 -9 -8 -8 -8 -8 -8 -8 -8 -9 -8 -8 -8 -8 -8 -8 -8 -9 -8 -8 -8 -8 -8 -8 -7
-8 -8 -8 -8 -9 -8 -8 -8 -8 -8 -8 -8 -8 -9 -9 -9 -9 -9 -9 -8 -8 -8 -9 -8 -8 -8 -8 -7 -7 -7 -7 -7 -7 -7 -7 -8 -8 -7 -6 -7 -7 -8 -7 -7 -8 -8 -8 -8 -8
-8 -9 -9 -9 -8 -8 -8 -8 -8 -8 -8 -8 -8 -9 -9 -9 -9 -9 -9 -9 -9 -8 -8 -7 -7 -7 -6 -6 -6 -6 -7 -7 -7 -6 -6 -7 -7 -7 -7 -7 -7 -7 -7 -6 -7 -7 -7 -8 -8
-8 -8 -8 -8 -8 -8 -8 -8 -8 -8 -8 -8 -7 -8 -8 -8 -9 -9 -9 -8 -8 -8 -8 -7 -7 -7 -6 -6 -6 -6 -6 -6 -6 -6 -6 -6 -6 -6 -6 -6 -6 -6 -6 -6 -6 -6 -7 -8 -8
Height
5907 5907 5907 5905 5906 5902 5901 5899 5897 5896 5895 5895 5893 5893 5893 5892 5892 5895 5893 5893 5893 5896 5895 5896 5895 5894 5894 5892 5892 5891 5889 5888 5888 5888 5889 5890 5891 5892 5892 5893 5894 5894 5895 5895 5896 5896 5897 5898 5899
5908 5907 5908 5907 5906 5904 5903 5900 5898 5897 5896 5896 5895 5894 5893 5893 5893 5893 5893 5893 5893 5896 5896 5896 5896 5896 5895 5894 5893 5893 5891 5890 5890 5890 5890 5892 5893 5894 5894 5895 5895 5896 5896 5897 5897 5898 5898 5899 5899
5910 5909 5910 5909 5907 5906 5904 5902 5899 5896 5895 5895 5895 5894 5894 5894 5894 5893 5893 5894 5894 5897 5897 5897 5897 5897 5897 5896 5895 5895 5894 5893 5893 5893 5893 5894 5895 5897 5897 5897 5898 5898 5898 5899 5899 5899 5899 5900 5900
5911 5910 5912 5911 5909 5907 5905 5904 5901 5898 5897 5897 5895 5895 5895 5894 5894 5894 5894 5895 5895 5898 5899 5899 5900 5900 5899 5899 5898 5898 5898 5897 5896 5896 5896 5896 5897 5899 5899 5899 5899 5899 5899 5900 5901 5901 5901 5902 5903
5912 5912 5912 5913 5910 5910 5908 5905 5903 5901 5899 5897 5895 5895 5895 5895 5895 5895 5895 5895 5897 5899 5900 5901 5902 5902 5902 5901 5901 5901 5900 5900 5900 5899 5898 5898 5898 5899 5899 5900 5901 5901 5901 5901 5902 5903 5903 5904 5904
5915 5914 5914 5913 5911 5911 5909 5907 5905 5903 5901 5898 5897 5897 5897 5896 5896 5896 5896 5896 5898 5900 5902 5903 5903 5903 5903 5903 5903 5903 5902 5902 5902 5901 5901 5900 5900 5900 5900 5900 5902 5902 5903 5903 5903 5904 5905 5905 5905
5916 5916 5915 5913 5910 5911 5910 5908 5907 5905 5903 5900 5899 5898 5899 5898 5897 5898 5897 5898 5899 5901 5903 5904 5904 5904 5904 5904 5904 5904 5902 5902 5903 5903 5902 5902 5902 5902 5901 5901 5902 5903 5904 5905 5906 5906 5906 5907 5907
5917 5917 5915 5914 5912 5912 5911 5910 5908 5906 5904 5903 5900 5900 5900 5899 5898 5898 5898 5899 5900 5901 5903 5904 5905 5905 5905 5905 5905 5904 5903 5903 5903 5903 5902 5903 5903 5903 5903 5904 5904 5904 5905 5905 5906 5907 5908 5909 5909
5918 5919 5916 5915 5914 5914 5912 5910 5910 5909 5907 5905 5903 5902 5900 5900 5899 5899 5900 5900 5901 5902 5903 5904 5905 5906 5906 5906 5906 5905 5904 5903 5903 5903 5902 5903 5903 5904 5904 5905 5906 5905 5906 5907 5908 5908 5909 5910 5910
5919 5919 5918 5917 5916 5915 5914 5913 5912 5910 5907 5905 5904 5904 5903 5902 5901 5901 5901 5902 5902 5903 5904 5905 5906 5906 5907 5907 5907 5906 5905 5904 5903 5903 5902 5903 5904 5906 5906 5906 5907 5907 5907 5909 5909 5910 5909 5911 5911
5919 5919 5918 5918 5917 5916 5914 5913 5912 5910 5909 5908 5906 5904 5904 5903 5903 5903 5903 5903 5903 5903 5904 5905 5905 5906 5908 5908 5907 5907 5905 5905 5905 5903 5904 5905 5906 5907 5908 5908 5908 5909 5909 5910 5910 5910 5911 5912 5913
5920 5920 5919 5920 5919 5919 5917 5916 5914 5912 5912 5911 5908 5906 5906 5904 5903 5902 5903 5903 5902 5903 5904 5905 5906 5906 5907 5908 5908 5908 5906 5906 5906 5905 5905 5906 5907 5909 5909 5910 5910 5910 5911 5911 5911 5911 5912 5913 5914
5920 5920 5921 5921 5921 5921 5920 5918 5916 5915 5915 5913 5910 5908 5906 5905 5905 5904 5904 5903 5901 5902 5904 5905 5906 5907 5908 5909 5909 5910 5907 5907 5908 5908 5908 5908 5909 5912 5911 5911 5911 5912 5913 5912 5913 5912 5913 5914 5915
5921 5922 5923 5922 5922 5923 5921 5921 5919 5917 5915 5913 5912 5910 5908 5907 5906 5905 5905 5903 5902 5902 5903 5905 5907 5908 5909 5910 5910 5910 5910 5910 5911 5910 5909 5911 5912 5913 5913 5913 5912 5913 5914 5914 5914 5914 5914 5914 5916
5921 5923 5924 5923 5923 5924 5922 5922 5921 5920 5917 5915 5912 5910 5909 5907 5907 5906 5905 5903 5901 5900 5901 5903 5905 5907 5909 5911 5912 5911 5912 5913 5913 5912 5913 5914 5914 5914 5915 5915 5914 5913 5915 5913 5914 5914 5915 5915 5917
5921 5923 5924 5924 5923 5925 5925 5924 5922 5921 5919 5915 5913 5910 5909 5906 5905 5904 5903 5904 5901 5900 5899 5900 5901 5904 5906 5910 5912 5911 5913 5915 5915 5914 5914 5916 5916 5916 5917 5916 5915 5916 5918 5917 5916 5915 5916 5916 5918
5921 5922 5923 5924 5923 5924 5924 5923 5922 5920 5917 5915 5911 5908 5907 5907 5904 5904 5902 5902 5901 5900 5898 5900 5901 5902 5904 5907 5910 5911 5913 5915 5916 5917 5916 5916 5918 5919 5919 5920 5919 5919 5919 5919 5917 5914 5916 5918 5918
5921 5922 5923 5924 5923 5924 5924 5923 5921 5919 5917 5913 5910 5908 5905 5902 5902 5902 5901 5901 5902 5903 5900 5900 5900 5902 5903 5906 5908 5910 5912 5913 5915 5918 5918 5917 5918 5919 5920 5920 5921 5920 5921 5920 5918 5918 5918 5916 5917
5922 5923 5923 5923 5922 5924 5923 5923 5921 5919 5917 5914 5912 5908 5903 5895 5898 5901 5901 5902 5903 5902 5903 5903 5902 5902 5903 5905 5906 5909 5911 5912 5913 5915 5917 5917 5917 5917 5919 5919 5920 5920 5921 5921 5920 5919 5919 5918 5919
5922 5922 5922 5922 5922 5922 5922 5922 5921 5919 5919 5917 5913 5910 5909 5906 5904 5902 5901 5901 5904 5904 5900 5901 5903 5903 5903 5903 5904 5906 5907 5911 5913 5913 5915 5915 5915 5915 5917 5918 5919 5920 5919 5919 5919 5919 5919 5919 5919
5922 5922 5921 5922 5921 5921 5921 5921 5920 5920 5919 5918 5912 5910 5911 5909 5906 5905 5902 5902 5905 5907 5904 5902 5902 5903 5905 5906 5906 5907 5909 5910 5911 5911 5913 5913 5913 5913 5914 5915 5916 5917 5917 5917 5917 5917 5917 5917 5917
5920 5920 5920 5919 5920 5920 5919 5920 5919 5919 5918 5916 5912 5908 5910 5907 5907 5906 5905 5905 5906 5905 5904 5900 5898 5902 5902 5904 5906 5905 5906 5907 5909 5910 5910 5911 5912 5912 5912 5911 5912 5913 5914 5913 5913 5914 5914 5914 5914
5918 5918 5918 5918 5918 5918 5918 5918 5918 5918 5916 5914 5908 5906 5905 5905 5907 5908 5908 5907 5906 5905 5903 5901 5897 5900 5902 5903 5906 5905 5904 5905 5906 5907 5908 5909 5909 5908 5909 5910 5909 5909 5909 5910 5910 5910 5910 5911 5911
5917 5916 5917 5918 5917 5918 5917 5917 5917 5916 5914 5912 5908 5904 5902 5906 5907 5907 5908 5906 5904 5905 5904 5902 5902 5905 5906 5907 5904 5905 5903 5903 5904 5904 5905 5905 5906 5905 5905 5904 5904 5904 5903 5904 5904 5904 5905 5906 5907
5914 5915 5915 5916 5916 5917 5916 5915 5914 5913 5910 5908 5906 5902 5896 5903 5905 5906 5906 5906 5906 5904 5904 5904 5903 5904 5905 5903 5898 5903 5903 5902 5903 5903 5902 5902 5902 5902 5902 5902 5901 5899 5897 5898 5898 5899 5899 5901 5901
5913 5914 5914 5913 5914 5915 5914 5912 5913 5908 5906 5904 5902 5901 5901 5901 5901 5903 5901 5903 5904 5904 5902 5902 5900 5902 5902 5902 5900 5902 5902 5902 5900 5899 5898 5899 5900 5899 5899 5898 5896 5895 5896 5895 5895 5896 5896 5897 5897
5910 5910 5911 5911 5911 5912 5912 5911 5909 5905 5901 5897 5896 5897 5899 5899 5900 5899 5897 5898 5902 5902 5900 5899 5899 5898 5899 5900 5899 5898 5896 5895 5894 5893 5893 5892 5893 5891 5886 5891 5892 5891 5894 5894 5895 5892 5890 5892 5892
5907 5909 5910 5909 5910 5909 5908 5907 5907 5905 5900 5895 5893 5892 5893 5894 5897 5897 5896 5898 5898 5899 5897 5896 5896 5896 5896 5896 5895 5894 5893 5892 5891 5890 5889 5888 5887 5887 5887 5886 5884 5886 5888 5886 5886 5885 5884 5885 5885
5905 5906 5907 5907 5907 5906 5905 5906 5905 5903 5899 5895 5891 5889 5890 5892 5894 5894 5895 5894 5895 5894 5893 5893 5893 5892 5892 5893 5892 5891 5889 5888 5887 5887 5886 5884 5882 5879 5880 5880 5878 5876 5876 5876 5877 5877 5877 5877 5877
5902 5903 5903 5903 5904 5903 5903 5903 5902 5901 5898 5894 5893 5892 5891 5892 5892 5893 5894 5893 5891 5890 5889 5888 5888 5887 5886 5886 5886 5886 5885 5885 5883 5882 5880 5879 5877 5875 5873 5871 5870 5870 5870 5869 5869 5868 5868 5869 5869
Wind_Speed
9 12 16 13 12 13 12 13 16 16 15 12 8 6 8 9 6 6 5 7 7 3 8 7 10 14 17 20 19 17 16 16 15 15 14 14 13 11 10 9 9 8 8 7 8 7 6 7 8
6 12 14 15 13 13 13 14 15 16 15 15 10 9 6 7 6 6 4 7 6 3 6 7 10 14 16 19 18 18 17 16 14 13 12 12 12 11 10 12 11 10 8 7 7 7 6 7 8
6 9 9 16 15 15 14 13 15 17 17 15 12 11 8 7 6 6 3 4 5 3 5 6 10 13 15 18 18 18 17 16 14 13 11 10 10 10 11 10 11 9 8 6 6 6 6 8 8
10 11 12 17 15 14 12 11 13 15 17 14 10 9 7 9 9 3 3 5 5 3 5 5 10 12 13 17 16 16 18 18 16 14 12 10 9 10 10 10 11 11 8 6 6 6 5 8 8
8 7 11 13 13 15 16 17 17 19 18 14 11 8 7 6 6 2 3 5 3 3 4 5 9 11 12 14 14 14 15 17 18 16 13 12 10 10 11 11 11 12 11 9 8 8 7 7 9
8 7 12 12 15 15 15 16 16 16 16 13 12 11 9 5 4 3 3 5 5 2 2 5 9 11 12 12 12 13 14 10 12 13 14 12 9 9 10 10 10 11 11 11 10 10 10 9 7
12 10 14 14 15 14 14 14 14 14 14 12 12 13 10 6 4 4 4 4 4 4 3 4 8 11 12 11 12 12 14 13 10 10 10 12 10 9 10 11 12 13 13 11 10 9 8 9 8
7 7 14 15 15 12 11 13 15 15 15 13 10 12 10 8 6 2 3 3 4 5 5 6 8 9 11 12 12 12 13 13 11 8 7 7 8 8 9 11 13 14 14 13 11 10 9 8 8
5 6 13 15 11 10 9 14 17 17 17 14 10 11 10 8 5 4 4 3 2 5 5 7 9 9 10 11 9 9 10 11 12 11 2 1 4 7 8 9 11 13 13 13 12 12 10 11 10
5 6 15 16 10 11 13 19 19 18 14 13 12 11 9 8 5 3 4 5 2 3 4 7 8 8 8 9 5 5 9 9 12 14 10 7 7 7 7 9 11 12 11 10 11 11 10 8 9
4 15 20 20 21 18 16 17 17 14 13 16 14 15 11 8 7 5 5 3 3 3 4 6 8 8 7 6 4 4 6 8 10 14 8 6 7 7 5 5 6 6 7 7 8 8 7 9 9
10 13 24 27 27 27 22 17 13 12 13 16 15 14 13 11 7 5 2 1 2 2 3 4 6 9 8 5 5 5 6 9 14 13 11 10 12 6 4 2 5 6 5 4 4 5 4 7 8
6 15 23 26 28 26 27 28 20 16 16 15 16 16 17 13 7 6 4 0 1 1 1 4 7 8 10 10 6 6 8 12 15 17 14 14 12 7 6 3 4 5 4 4 5 4 3 4 5
6 13 18 22 26 25 28 29 20 20 17 13 14 14 16 19 16 9 6 4 1 3 4 5 8 10 11 8 5 6 9 10 14 16 20 17 9 8 8 6 4 4 2 3 2 2 3 5 6
8 10 14 18 22 22 23 28 28 23 17 16 18 13 11 15 16 14 12 7 5 2 4 6 9 11 10 7 7 5 7 7 10 14 15 14 13 11 9 7 9 2 2 4 4 3 2 5 6
4 5 7 14 17 19 18 23 22 20 19 14 9 10 9 11 12 11 12 9 4 2 3 8 14 15 13 11 8 6 4 6 7 8 11 10 10 9 9 12 14 12 7 7 7 5 4 4 6
5 2 2 12 15 14 17 23 20 24 17 18 8 7 4 6 11 9 8 5 4 4 1 12 16 17 17 15 12 8 4 3 4 3 6 7 7 6 7 7 9 9 6 11 8 5 6 2 4
6 3 1 8 10 12 13 19 22 21 18 15 8 7 9 11 6 5 4 3 5 5 4 10 16 15 15 14 12 10 7 3 2 1 2 2 3 3 3 4 5 5 4 6 9 8 5 2 9
6 5 2 6 6 8 11 17 21 17 19 17 12 14 18 10 7 3 4 3 3 2 2 10 13 13 15 14 12 10 8 7 6 6 4 2 1 1 2 2 4 4 5 4 4 3 3 6 8
10 6 2 3 5 5 9 15 18 17 17 18 20 20 17 7 5 4 6 3 1 0 3 7 12 16 17 18 17 15 13 12 12 10 8 6 5 5 5 6 6 8 7 7 5 3 2 2 4
13 10 6 4 5 6 10 14 18 15 18 24 28 26 17 4 6 3 6 5 2 1 6 9 12 13 12 11 12 13 13 13 14 12 11 9 9 8 9 9 10 10 11 12 11 9 8 8 8
17 16 11 4 6 7 10 15 19 17 19 28 31 29 21 12 9 6 3 8 4 1 6 12 13 9 11 13 14 13 12 13 13 10 11 11 10 10 12 11 13 13 14 13 13 14 14 15 14
21 18 13 8 10 11 12 14 19 22 22 26 24 15 16 16 11 10 6 8 4 5 14 13 8 4 4 5 8 15 14 14 14 12 10 10 11 13 13 14 15 17 16 16 16 16 16 16 16
22 17 12 16 15 11 13 17 17 22 24 25 25 26 15 15 15 12 11 6 10 0 10 7 9 14 9 8 11 10 12 9 9 9 8 7 8 13 14 15 16 18 20 19 17 18 18 17 18
25 18 15 15 16 16 17 19 20 22 24 22 28 27 12 17 17 12 11 6 6 4 8 8 9 12 13 21 16 17 14 12 11 9 10 11 11 13 14 14 14 13 13 14 17 20 19 20 22
13 21 21 22 20 19 20 22 20 25 27 25 25 12 18 19 17 17 11 8 10 10 6 8 11 12 12 18 9 7 1 7 11 11 11 14 18 21 21 19 19 19 19 17 14 13 18 21 22
9 5 9 13 11 13 17 18 18 24 29 21 11 6 11 19 15 12 6 6 8 8 5 10 14 16 17 15 17 14 11 13 18 19 19 21 24 29 20 13 19 23 25 23 18 18 18 20 22
10 11 9 9 12 16 16 18 19 20 25 23 16 8 6 16 13 12 13 13 10 11 12 12 12 14 15 16 17 16 16 16 17 20 23 26 28 26 23 23 24 24 26 20 16 23 24 23 24
13 13 12 12 13 15 15 15 19 20 14 22 24 5 10 15 15 17 15 11 14 16 15 13 13 12 10 9 10 12 14 15 16 17 19 21 24 25 24 23 25 27 26 25 25 28 26 25 26
20 18 19 18 15 17 19 15 19 15 15 15 20 18 7 13 15 17 17 16 16 17 18 18 16 15 14 14 14 13 14 16 18 20 22 23 25 26 28 28 28 28 28 28 25 24 28 30 33
Wind_Direction
45 57 52 45 58 65 74 65 58 48 54 53 41 57 61 61 57 79 94 101 84 88 95 70 64 63 65 61 56 58 69 77 79 83 83 83 85 93 105 97 97 109 106 110 109 113 116 120 119
32 51 50 62 78 74 68 60 56 52 37 39 50 56 67 58 66 66 64 113 93 64 84 64 61 64 67 65 61 63 70 77 83 80 76 75 85 94 97 99 101 106 106 107 107 108 119 120 131
46 69 66 75 80 76 69 55 47 42 37 26 35 51 57 69 46 65 81 107 107 77 80 68 63 67 68 68 67 68 71 78 80 80 72 66 74 81 94 101 109 112 111 104 105 107 119 117 138
67 65 84 77 70 66 56 55 47 40 37 30 36 37 39 42 46 56 96 104 126 115 91 76 68 66 73 75 71 71 70 72 74 79 77 71 66 67 71 86 100 108 118 111 105 101 120 132 140
53 75 95 84 64 65 58 60 59 37 27 23 26 35 36 35 43 35 92 91 129 149 113 95 76 70 71 77 71 67 66 65 68 69 79 85 85 88 90 87 86 95 97 109 113 94 107 137 153
54 88 92 87 75 55 52 59 55 39 31 25 14 24 32 43 46 19 85 91 118 145 137 96 83 75 75 77 72 63 55 68 65 66 69 78 89 92 89 87 94 99 99 107 112 113 109 114 134
67 75 89 83 68 55 56 58 54 36 29 32 13 16 25 29 39 77 62 83 101 146 141 103 89 79 82 80 73 66 62 73 66 57 66 69 86 93 80 73 84 91 98 103 108 110 112 114 113
47 48 69 83 67 60 58 55 45 35 24 26 22 21 24 32 53 78 111 108 111 148 138 129 108 85 79 82 85 75 71 62 56 50 69 78 73 87 88 79 81 82 87 90 92 87 80 82 95
358 78 72 78 71 49 46 46 42 36 22 16 11 27 27 31 21 62 77 89 83 138 147 138 118 103 87 87 84 75 65 49 34 37 52 49 114 81 84 81 77 82 81 86 89 90 90 92 85
20 70 72 69 66 43 30 36 33 30 22 19 7 23 20 17 20 97 69 84 104 142 161 137 128 116 105 95 91 56 52 43 38 35 125 125 136 114 94 84 82 73 71 73 82 89 87 71 71
81 79 75 74 66 48 38 27 18 10 15 11 6 17 16 16 12 21 50 101 160 158 141 146 144 129 123 113 100 65 60 52 39 35 105 117 124 113 91 67 84 73 70 74 74 81 88 92 88
94 81 82 70 57 47 40 24 6 358 7 6 2 13 10 3 6 355 317 228 149 197 137 149 154 150 138 159 115 95 80 66 50 60 92 87 111 102 77 74 108 95 91 83 84 81 77 96 99
128 95 79 71 56 45 43 27 9 11 7 -0 2 16 21 14 6 349 357 35 139 196 221 189 175 169 150 144 127 104 81 80 71 81 78 112 135 97 79 70 183 122 101 89 74 80 102 81 81
156 95 83 72 58 43 37 29 25 28 14 12 12 3 28 23 3 345 335 322 249 172 224 216 206 180 175 143 142 105 87 88 86 79 74 90 116 108 82 46 70 172 175 88 54 66 111 115 105
144 93 79 69 56 38 40 35 36 36 28 20 13 8 14 26 19 351 338 316 283 243 216 220 203 176 180 158 158 110 86 95 92 84 79 75 79 63 66 75 64 180 192 268 155 146 150 126 110
167 93 75 62 58 34 34 37 31 25 26 19 7 341 351 15 24 13 351 332 320 317 239 211 182 179 167 169 165 133 95 106 93 84 93 84 88 78 58 57 58 63 58 12 346 163 126 98 123
156 180 68 72 45 24 11 22 17 9 7 7 15 21 342 353 357 357 10 335 351 332 249 169 167 169 169 166 172 153 128 96 91 85 89 92 83 76 56 54 65 56 52 27 17 173 130 104 153
146 151 74 62 44 21 3 11 6 6 4 8 26 28 337 290 269 319 56 71 21 13 101 171 162 171 164 171 175 167 166 151 119 180 127 103 99 60 44 27 37 33 40 39 52 71 91 344 189
186 210 21 23 31 5 4 356 2 3 9 16 13 353 345 28 156 189 110 146 331 20 208 163 160 163 162 169 178 183 179 182 199 196 189 201 204 196 302 338 320 322 326 354 28 79 57 66 130
203 195 187 264 355 358 355 348 1 352 3 15 5 357 358 22 80 97 125 124 234 0 137 175 176 176 180 177 183 185 190 194 201 203 211 217 236 244 256 269 267 276 278 281 282 276 278 240 259
208 216 231 290 312 341 338 358 357 357 349 348 333 329 330 322 303 66 84 112 146 170 164 183 181 191 197 204 198 198 203 208 212 213 218 226 234 244 252 254 259 264 269 266 264 264 260 262 262
215 224 242 285 274 311 345 351 351 341 341 346 325 320 316 271 254 231 162 126 118 216 232 190 193 170 179 198 213 205 211 221 223 225 231 228 236 237 247 250 260 261 264 263 266 270 260 260 261
217 223 227 248 288 325 329 331 328 333 329 351 342 324 303 260 241 255 233 205 219 301 329 320 357 193 183 191 228 216 218 230 233 231 230 239 249 246 246 253 254 256 254 256 261 255 258 258 261
209 220 229 252 276 296 318 304 311 329 343 345 344 339 283 231 229 225 246 285 203 147 349 334 330 321 339 250 212 210 175 176 200 216 231 249 266 262 255 254 261 263 263 263 262 268 264 260 259
214 229 250 260 274 291 294 290 308 329 338 341 347 352 182 199 210 204 199 190 214 263 321 340 315 333 326 328 223 208 182 184 194 201 212 227 247 262 266 266 270 270 266 262 252 253 256 267 260
210 231 249 259 270 270 277 284 314 333 337 328 328 350 191 185 198 203 209 224 225 227 300 304 315 322 333 327 344 36 56 261 245 242 244 264 272 271 264 264 270 267 263 264 265 277 273 271 277
216 230 260 267 271 277 288 300 334 341 339 330 328 306 207 203 193 203 228 256 271 288 290 298 311 310 313 311 306 307 296 287 287 292 289 276 277 294 323 295 299 272 277 272 277 275 272 273 272
243 240 263 287 299 304 317 331 340 350 349 357 2 269 263 200 221 226 241 247 264 285 300 299 293 295 301 301 298 297 294 292 292 287 285 283 284 288 298 297 293 286 279 287 281 272 275 272 270
223 245 257 266 283 305 314 333 344 338 323 354 1 289 255 220 243 252 266 280 289 294 295 287 286 287 294 297 295 300 302 302 297 296 297 293 293 293 288 285 288 292 292 289 283 278 278 282 271
226 241 250 264 282 300 320 339 333 335 321 319 331 346 316 243 249 267 292 293 296 297 298 298 297 303 306 305 305 304 299 298 301 302 302 302 305 304 304 303 297 293 292 291 285 278 271 272 276